This demonstration page uses our WeatherBlox Daily Observations layout. Learn more.

38.88101, -77.10428

Hourly Observations for August 31, 2015

Temp ( °F °C ) Dew Point ( °F °C ) Humidity (%) Winds ( mph kmh ) Pressure ( in mb ) Visibility ( mi km ) Precip ( " mm )
12:52 am 00:52 Cloudy 78 25.6 65 18.3 64 64 SSW 9 15 30.09 1019 10 16.0934 0 0
1:52 am 01:52 Cloudy 77 25 66 18.9 69 69 S 7 11 30.09 1019 10 16.0934 0 0
2:52 am 02:52 Cloudy 77 25 67 19.4 71 71 S 8 13 30.07 1018 10 16.0934 0 0
3:52 am 03:52 Cloudy 76 24.4 67 19.4 74 74 S 8 13 30.06 1018 10 16.0934 0 0
4:52 am 04:52 Cloudy 75 23.9 67 19.4 76 76 S 5 7 30.07 1018 10 16.0934 0 0
5:52 am 05:52 Cloudy 75 23.9 68 20 79 79 S 6 9 30.06 1018 10 16.0934 0 0
6:52 am 06:52 Cloudy 75 23.9 67 19.4 76 76 SSW 7 11 30.08 1019 10 16.0934 0 0
7:52 am 07:52 Cloudy 76 24.4 68 20 77 77 SSW 5 7 30.09 1019 10 16.0934 0 0
8:52 am 08:52 Cloudy 78 25.6 67 19.4 69 69 S 6 9 30.09 1019 10 16.0934 0 0
9:52 am 09:52 Cloudy 80 26.7 67 19.4 64 64 S 7 11 30.1 1019 10 16.0934 0 0
10:52 am 10:52 Cloudy 81 27.2 70 21.1 69 69 S 7 11 30.11 1020 10 16.0934 0 0
11:52 am 11:52 Cloudy 83 28.3 63 17.2 51 51 WSW 9 15 30.11 1020 10 16.0934 0 0
12:52 pm 12:52 Cloudy 84 28.9 64 17.8 51 51 SW 7 11 30.09 1019 10 16.0934 0 0
1:52 pm 13:52 Cloudy 84 28.9 70 21.1 63 63 S 13 20 30.08 1019 10 16.0934 0 0
2:52 pm 14:52 Mostly Cloudy 86 30 66 18.9 51 51 SSW 9 15 30.06 1018 10 16.0934 0 0
3:52 pm 15:52 Mostly Cloudy 87 30.6 68 20 53 53 S 9 15 30.05 1018 10 16.0934 0 0
4:52 pm 16:52 Partly Cloudy 87 30.6 68 20 53 53 S 10 17 30.04 1017 10 16.0934 0 0
5:52 pm 17:52 Partly Cloudy 85 29.4 66 18.9 53 53 S 10 17 30.04 1017 10 16.0934 0 0
6:52 pm 18:52 Mostly Cloudy 84 28.9 67 19.4 57 57 S 8 13 30.03 1017 10 16.0934 0 0
7:52 pm 19:52 Mostly Cloudy 82 27.8 64 17.8 55 55 S 10 17 30.03 1017 10 16.0934 0 0
8:52 pm 20:52 Partly Cloudy 80 26.7 67 19.4 64 64 S 7 11 30.04 1017 10 16.0934 0 0
9:52 pm 21:52 Partly Cloudy 78 25.6 67 19.4 69 69 S 8 13 30.06 1018 10 16.0934 0 0
10:52 pm 22:52 Partly Cloudy 77 25 70 21.1 79 79 S 10 17 30.06 1018 10 16.0934 0 0
11:52 pm 23:52 Partly Cloudy 76 24.4 71 21.7 85 85 S 7 11 30.07 1018 10 16.0934 0 0

Powered by AerisWeather